SWA2832 KLAX-KAUS

Flight info

Callsign SWA2832
Flight time 2h 19m
Altitude 37000
Route DOTSS2 CNERY BLH KOFFA BXK DMN EWM INK SJT UCOKA LAIKS4
Aircraft B738/M-SDE2E3FGHIRWXY/LB1

Departure

Time 2026-04-25 20:52
Airport Los Angeles International Airport (KLAX)

Arrival

Time 2026-04-25 23:11
Airport Austin Bergstrom International Airport (KAUS)
Time Latitude Longitude Altitude Speed Heading
2026-04-25 20:26 33.94759 -118.40198 117 ft 0 kts 110°
2026-04-25 20:40 33.94762 -118.40211 118 ft 2 kts 100°
2026-04-25 20:41 33.94763 -118.40224 118 ft 0 kts 86°
2026-04-25 20:42 33.94761 -118.40237 117 ft 2 kts 76°
2026-04-25 20:42 33.94757 -118.40253 118 ft 2 kts 61°
2026-04-25 20:42 33.94745 -118.40265 117 ft 2 kts 14°
2026-04-25 20:42 33.94735 -118.40265 118 ft 1 kts 347°
2026-04-25 20:43 33.94734 -118.40265 118 ft 0 kts 347°
2026-04-25 20:46 33.94735 -118.40265 117 ft 1 kts 348°
2026-04-25 20:46 33.94776 -118.40273 117 ft 8 kts 349°
2026-04-25 20:46 33.94828 -118.40290 118 ft 7 kts 345°
2026-04-25 20:47 33.94874 -118.40291 118 ft 6 kts 23°
2026-04-25 20:47 33.94905 -118.40215 118 ft 13 kts 82°
2026-04-25 20:47 33.94915 -118.40107 116 ft 12 kts 83°
2026-04-25 20:47 33.94926 -118.40000 114 ft 13 kts 82°
2026-04-25 20:48 33.94971 -118.39922 113 ft 12 kts 11°
2026-04-25 20:48 33.95043 -118.39947 113 ft 9 kts 283°
2026-04-25 20:48 33.95042 -118.39967 114 ft 0 kts 261°
2026-04-25 20:51 33.95040 -118.39986 114 ft 10 kts 263°
2026-04-25 20:51 33.95005 -118.40307 118 ft 72 kts 262°
2026-04-25 20:52 33.94917 -118.41164 124 ft 132 kts 262°
2026-04-25 20:52 33.94878 -118.41544 124 ft 149 kts 262°
2026-04-25 20:52 33.94794 -118.43864 900 ft 167 kts 263°
2026-04-25 20:52 33.94652 -118.45231 1421 ft 172 kts 256°
2026-04-25 20:53 33.94429 -118.46717 1787 ft 186 kts 261°
2026-04-25 20:53 33.94345 -118.48327 2147 ft 202 kts 267°
2026-04-25 20:53 33.94313 -118.50094 2516 ft 218 kts 267°
2026-04-25 20:53 33.94209 -118.51978 2901 ft 234 kts 260°
2026-04-25 20:54 33.93533 -118.53799 3288 ft 248 kts 230°
2026-04-25 20:54 33.92086 -118.55026 3711 ft 263 kts 198°
2026-04-25 20:54 33.90251 -118.55159 4403 ft 266 kts 176°
2026-04-25 20:54 33.88411 -118.54891 5074 ft 269 kts 174°
2026-04-25 20:55 33.86548 -118.54604 5765 ft 271 kts 175°
2026-04-25 20:55 33.84660 -118.54324 6451 ft 274 kts 175°
2026-04-25 20:55 33.82786 -118.54050 7203 ft 274 kts 176°
2026-04-25 20:55 33.80874 -118.53770 7968 ft 275 kts 176°
2026-04-25 20:56 33.78988 -118.53492 8709 ft 276 kts 176°
2026-04-25 20:56 33.77077 -118.53209 9475 ft 277 kts 177°
2026-04-25 20:56 33.75162 -118.52926 10230 ft 279 kts 178°
2026-04-25 20:56 33.73177 -118.52600 10720 ft 292 kts 174°
2026-04-25 20:57 33.71191 -118.51784 11129 ft 315 kts 155°
2026-04-25 20:57 33.69477 -118.50040 11467 ft 342 kts 134°
2026-04-25 20:57 33.68297 -118.47462 11954 ft 362 kts 116°
2026-04-25 20:57 33.67427 -118.44575 12598 ft 370 kts 114°
2026-04-25 20:58 33.66588 -118.41615 13303 ft 375 kts 115°
2026-04-25 20:58 33.65745 -118.38673 14001 ft 379 kts 115°
2026-04-25 20:58 33.64948 -118.35616 14666 ft 388 kts 109°
2026-04-25 20:58 33.64502 -118.32394 15395 ft 397 kts 101°
2026-04-25 20:59 33.64340 -118.29053 16082 ft 403 kts 96°
2026-04-25 20:59 33.64320 -118.25684 16721 ft 409 kts 94°
2026-04-25 20:59 33.64355 -118.22241 17340 ft 415 kts 94°
2026-04-25 20:59 33.64398 -118.18817 18020 ft 417 kts 94°
2026-04-25 21:00 33.64433 -118.15306 18668 ft 421 kts 94°
2026-04-25 21:00 33.64441 -118.14128 18846 ft 423 kts 94°
2026-04-25 21:00 33.64458 -118.04663 20493 ft 431 kts 95°
2026-04-25 21:01 33.64453 -118.01061 21034 ft 435 kts 95°
2026-04-25 21:01 33.64446 -117.97422 21608 ft 438 kts 95°
2026-04-25 21:01 33.64437 -117.93758 22162 ft 441 kts 94°
2026-04-25 21:01 33.64428 -117.90066 22704 ft 444 kts 94°
2026-04-25 21:02 33.64417 -117.86349 23175 ft 449 kts 95°
2026-04-25 21:02 33.64340 -117.82600 23661 ft 452 kts 97°
2026-04-25 21:02 33.64062 -117.78902 24151 ft 451 kts 103°
2026-04-25 21:02 33.63473 -117.75228 24618 ft 452 kts 109°
2026-04-25 21:03 33.62668 -117.71563 25078 ft 453 kts 111°
2026-04-25 21:03 33.61772 -117.67944 25554 ft 456 kts 112°
2026-04-25 21:03 33.60835 -117.64314 25932 ft 461 kts 113°
2026-04-25 21:03 33.59879 -117.60635 26451 ft 463 kts 113°
2026-04-25 21:04 33.58919 -117.56928 26859 ft 467 kts 113°
2026-04-25 21:04 33.57957 -117.53183 27222 ft 472 kts 113°
2026-04-25 21:04 33.57004 -117.49446 27690 ft 475 kts 113°
2026-04-25 21:04 33.56045 -117.45660 28041 ft 480 kts 113°
2026-04-25 21:05 33.55080 -117.41827 28519 ft 481 kts 113°
2026-04-25 21:05 33.54115 -117.37985 28881 ft 485 kts 112°
2026-04-25 21:05 33.53147 -117.34126 29170 ft 491 kts 113°
2026-04-25 21:05 33.52160 -117.30163 29569 ft 494 kts 112°
2026-04-25 21:06 33.51305 -117.26168 29949 ft 500 kts 108°
2026-04-25 21:06 33.50699 -117.22066 30421 ft 504 kts 103°
2026-04-25 21:06 33.50352 -117.17900 30965 ft 504 kts 99°
2026-04-25 21:06 33.50280 -117.16524 31138 ft 504 kts 98°
2026-04-25 21:07 33.50102 -117.09541 31971 ft 503 kts 96°
2026-04-25 21:07 33.50071 -117.05399 32433 ft 502 kts 96°
2026-04-25 21:07 33.50053 -117.01208 32850 ft 502 kts 96°
2026-04-25 21:07 33.50033 -116.97003 32990 ft 508 kts 96°
2026-04-25 21:08 33.50002 -116.92750 33333 ft 509 kts 96°
2026-04-25 21:08 33.49964 -116.88521 33917 ft 505 kts 96°
2026-04-25 21:08 33.49918 -116.84373 34254 ft 504 kts 96°
2026-04-25 21:08 33.49862 -116.80154 34425 ft 510 kts 97°
2026-04-25 21:09 33.49731 -116.71716 35312 ft 506 kts 96°
2026-04-25 21:09 33.49663 -116.67525 35692 ft 505 kts 97°
2026-04-25 21:09 33.49592 -116.63298 36066 ft 505 kts 97°
2026-04-25 21:10 33.49520 -116.59134 36444 ft 503 kts 97°
2026-04-25 21:10 33.49445 -116.54960 36675 ft 505 kts 97°
2026-04-25 21:10 33.49363 -116.50758 36817 ft 509 kts 97°
2026-04-25 21:10 33.49279 -116.46500 36941 ft 512 kts 96°
2026-04-25 21:11 33.49126 -116.38036 36921 ft 507 kts 96°
2026-04-25 21:11 33.49001 -116.29627 36892 ft 505 kts 97°
2026-04-25 21:12 33.48881 -116.21229 36881 ft 510 kts 97°
2026-04-25 21:12 33.48797 -116.15623 36833 ft 506 kts 97°
2026-04-25 21:13 33.49089 -116.04402 36797 ft 514 kts 86°
2026-04-25 21:13 33.50726 -115.96052 36780 ft 520 kts 76°
2026-04-25 21:14 33.53002 -115.87820 36799 ft 522 kts 72°
2026-04-25 21:14 33.55438 -115.79697 36824 ft 517 kts 72°
2026-04-25 21:15 33.57871 -115.71562 36836 ft 520 kts 72°
2026-04-25 21:15 33.60182 -115.63366 36859 ft 518 kts 76°
2026-04-25 21:16 33.61511 -115.54991 36861 ft 510 kts 89°
2026-04-25 21:16 33.61677 -115.46524 36858 ft 510 kts 96°
2026-04-25 21:17 33.61446 -115.38057 36844 ft 510 kts 97°
2026-04-25 21:17 33.61153 -115.29593 36839 ft 508 kts 98°
2026-04-25 21:18 33.60882 -115.21124 36832 ft 510 kts 98°
2026-04-25 21:18 33.60640 -115.12723 36825 ft 506 kts 98°
2026-04-25 21:19 33.60409 -115.04280 36827 ft 511 kts 97°
2026-04-25 21:19 33.60171 -114.95796 36816 ft 511 kts 97°
2026-04-25 21:20 33.60011 -114.90127 36825 ft 511 kts 97°
2026-04-25 21:20 33.59682 -114.78766 36833 ft 512 kts 97°
2026-04-25 21:21 33.59314 -114.70332 36829 ft 507 kts 101°
2026-04-25 21:21 33.58566 -114.61979 36820 ft 507 kts 103°
2026-04-25 21:22 33.57704 -114.53568 36810 ft 509 kts 103°
2026-04-25 21:22 33.56874 -114.45182 36814 ft 509 kts 103°
2026-04-25 21:23 33.56077 -114.36794 36812 ft 510 kts 102°
2026-04-25 21:23 33.55298 -114.28367 36795 ft 508 kts 102°
2026-04-25 21:24 33.54520 -114.19956 36841 ft 511 kts 102°
2026-04-25 21:24 33.53743 -114.11569 36826 ft 508 kts 102°
2026-04-25 21:25 33.52955 -114.03137 36857 ft 512 kts 102°
2026-04-25 21:25 33.52160 -113.94718 36833 ft 511 kts 103°
2026-04-25 21:26 33.51356 -113.86273 36869 ft 513 kts 102°
2026-04-25 21:26 33.50552 -113.77840 36838 ft 510 kts 102°
2026-04-25 21:27 33.49738 -113.69382 36840 ft 513 kts 102°
2026-04-25 21:27 33.48914 -113.60899 36850 ft 512 kts 103°
2026-04-25 21:28 33.48092 -113.52508 36857 ft 514 kts 103°
2026-04-25 21:28 33.47259 -113.44044 36863 ft 513 kts 103°
2026-04-25 21:29 33.46433 -113.35576 36852 ft 513 kts 101°
2026-04-25 21:29 33.46004 -113.27067 36848 ft 517 kts 97°
2026-04-25 21:30 33.45891 -113.18430 36844 ft 521 kts 96°
2026-04-25 21:30 33.45834 -113.11207 36839 ft 522 kts 96°
2026-04-25 21:31 33.45705 -113.01102 36835 ft 520 kts 96°
2026-04-25 21:31 33.45551 -112.92461 36854 ft 523 kts 96°
2026-04-25 21:32 33.45215 -112.83846 36875 ft 517 kts 101°
2026-04-25 21:32 33.44087 -112.75438 36881 ft 511 kts 109°
2026-04-25 21:33 33.42405 -112.67188 36887 ft 509 kts 111°
2026-04-25 21:33 33.40661 -112.59002 36885 ft 507 kts 111°
2026-04-25 21:34 33.38928 -112.50825 36887 ft 512 kts 111°
2026-04-25 21:34 33.37216 -112.42617 36886 ft 511 kts 111°
2026-04-25 21:35 33.35518 -112.34409 36879 ft 510 kts 111°
2026-04-25 21:35 33.33810 -112.26164 36879 ft 510 kts 111°
2026-04-25 21:36 33.32115 -112.17996 36876 ft 510 kts 111°
2026-04-25 21:36 33.30400 -112.09770 36872 ft 511 kts 111°
2026-04-25 21:37 33.29265 -112.04326 36873 ft 510 kts 111°
2026-04-25 21:37 33.26958 -111.93311 36886 ft 511 kts 111°
2026-04-25 21:38 33.25245 -111.85143 36879 ft 511 kts 111°
2026-04-25 21:38 33.23508 -111.76923 36880 ft 513 kts 111°
2026-04-25 21:39 33.21773 -111.68720 36892 ft 512 kts 111°
2026-04-25 21:39 33.20026 -111.60486 36897 ft 512 kts 111°
2026-04-25 21:40 33.18265 -111.52248 36894 ft 512 kts 111°
2026-04-25 21:40 33.16504 -111.44035 36898 ft 512 kts 111°
2026-04-25 21:41 33.14737 -111.35812 36893 ft 513 kts 111°
2026-04-25 21:41 33.12966 -111.27608 36901 ft 513 kts 112°
2026-04-25 21:42 33.11183 -111.19371 36908 ft 514 kts 112°
2026-04-25 21:42 33.09396 -111.11155 36928 ft 513 kts 111°
2026-04-25 21:43 33.07610 -111.02930 36942 ft 513 kts 112°
2026-04-25 21:43 33.05814 -110.94721 36946 ft 516 kts 112°
2026-04-25 21:44 33.04008 -110.86493 36932 ft 515 kts 112°
2026-04-25 21:45 33.01284 -110.74119 36913 ft 514 kts 111°
2026-04-25 21:45 32.99470 -110.65919 36928 ft 515 kts 112°
2026-04-25 21:46 32.97628 -110.57636 36946 ft 517 kts 111°
2026-04-25 21:46 32.95793 -110.49410 36966 ft 518 kts 112°
2026-04-25 21:47 32.93948 -110.41149 36981 ft 518 kts 112°
2026-04-25 21:47 32.92118 -110.32951 36995 ft 516 kts 112°
2026-04-25 21:48 32.90261 -110.24686 36991 ft 518 kts 112°
2026-04-25 21:48 32.88398 -110.16441 36988 ft 519 kts 112°
2026-04-25 21:49 32.86530 -110.08201 36999 ft 517 kts 112°
2026-04-25 21:49 32.84642 -109.99921 36999 ft 519 kts 112°
2026-04-25 21:50 32.82779 -109.91746 37000 ft 517 kts 112°
2026-04-25 21:50 32.80893 -109.83485 36991 ft 519 kts 112°
2026-04-25 21:51 32.79004 -109.75268 36903 ft 519 kts 112°
2026-04-25 21:51 32.77116 -109.67048 36922 ft 517 kts 112°
2026-04-25 21:52 32.75207 -109.58783 36893 ft 520 kts 112°
2026-04-25 21:52 32.73289 -109.50511 36909 ft 520 kts 112°
2026-04-25 21:53 32.71377 -109.42287 36953 ft 519 kts 112°
2026-04-25 21:53 32.69458 -109.34068 37012 ft 519 kts 112°
2026-04-25 21:54 32.67532 -109.25835 37026 ft 518 kts 113°
2026-04-25 21:54 32.65606 -109.17618 37040 ft 522 kts 112°
2026-04-25 21:55 32.63660 -109.09344 37036 ft 521 kts 112°
2026-04-25 21:55 32.61715 -109.01101 37054 ft 518 kts 112°
2026-04-25 21:56 32.59762 -108.92872 37054 ft 522 kts 112°
2026-04-25 21:56 32.57809 -108.84658 37053 ft 521 kts 112°
2026-04-25 21:57 32.55843 -108.76402 37047 ft 518 kts 112°
2026-04-25 21:57 32.53873 -108.68182 37041 ft 524 kts 112°
2026-04-25 21:58 32.51901 -108.59976 37056 ft 519 kts 112°
2026-04-25 21:58 32.49910 -108.51713 37093 ft 522 kts 112°
2026-04-25 21:59 32.47931 -108.43507 37104 ft 518 kts 112°
2026-04-25 21:59 32.45935 -108.35282 37109 ft 521 kts 112°
2026-04-25 22:00 32.42962 -108.23036 37054 ft 518 kts 112°
2026-04-25 22:00 32.40955 -108.14819 37045 ft 520 kts 112°
2026-04-25 22:01 32.38963 -108.06679 37088 ft 519 kts 112°
2026-04-25 22:01 32.37606 -108.01164 37069 ft 520 kts 112°
2026-04-25 22:02 32.34929 -107.90296 37058 ft 519 kts 111°
2026-04-25 22:02 32.32899 -107.82086 36951 ft 520 kts 111°
2026-04-25 22:03 32.30873 -107.73917 36952 ft 522 kts 112°
2026-04-25 22:03 32.28840 -107.65752 36950 ft 518 kts 112°
2026-04-25 22:04 32.26804 -107.57567 36948 ft 521 kts 111°
2026-04-25 22:04 32.24839 -107.49396 36981 ft 522 kts 111°
2026-04-25 22:05 32.22894 -107.41160 37014 ft 522 kts 110°
2026-04-25 22:05 32.20942 -107.32924 37025 ft 522 kts 111°
2026-04-25 22:06 32.18979 -107.24674 37025 ft 521 kts 111°
2026-04-25 22:06 32.17007 -107.16440 37020 ft 523 kts 111°
2026-04-25 22:07 32.15360 -107.09602 37010 ft 523 kts 110°
2026-04-25 22:07 32.13038 -107.00001 37000 ft 522 kts 111°
2026-04-25 22:08 32.11046 -106.91789 37012 ft 524 kts 110°
2026-04-25 22:08 32.09055 -106.83604 37019 ft 520 kts 111°
2026-04-25 22:09 32.07043 -106.75382 36994 ft 521 kts 111°
2026-04-25 22:09 32.05030 -106.67173 37006 ft 524 kts 111°
2026-04-25 22:10 32.03009 -106.58953 36926 ft 525 kts 111°
2026-04-25 22:10 32.00990 -106.50748 36999 ft 523 kts 111°
2026-04-25 22:11 31.98958 -106.42545 36923 ft 524 kts 110°
2026-04-25 22:11 31.96940 -106.34329 36923 ft 523 kts 109°
2026-04-25 22:12 31.95467 -106.25897 36903 ft 527 kts 100°
2026-04-25 22:12 31.95009 -106.20215 36929 ft 530 kts 96°
2026-04-25 22:13 31.94708 -106.08672 36947 ft 530 kts 92°
2026-04-25 22:13 31.94666 -105.99995 37054 ft 532 kts 92°
2026-04-25 22:14 31.94607 -105.91333 37031 ft 532 kts 92°
2026-04-25 22:14 31.94492 -105.82585 37069 ft 532 kts 92°
2026-04-25 22:15 31.94345 -105.73917 37066 ft 530 kts 92°
2026-04-25 22:16 31.94102 -105.60931 37074 ft 530 kts 92°
2026-04-25 22:16 31.93937 -105.52251 37078 ft 531 kts 92°
2026-04-25 22:17 31.93768 -105.43600 37070 ft 529 kts 91°
2026-04-25 22:17 31.93596 -105.34968 37029 ft 531 kts 93°
2026-04-25 22:18 31.93413 -105.26305 37017 ft 528 kts 91°
2026-04-25 22:18 31.93224 -105.17714 36994 ft 530 kts 92°
2026-04-25 22:19 31.93026 -105.09052 36991 ft 529 kts 92°
2026-04-25 22:19 31.92828 -105.00394 36996 ft 529 kts 92°
2026-04-25 22:20 31.92627 -104.91802 37000 ft 527 kts 92°
2026-04-25 22:20 31.92416 -104.83116 37046 ft 530 kts 91°
2026-04-25 22:21 31.92201 -104.74501 37051 ft 530 kts 92°
2026-04-25 22:21 31.91999 -104.65832 37065 ft 528 kts 91°
2026-04-25 22:22 31.91765 -104.57170 37029 ft 531 kts 92°
2026-04-25 22:22 31.91515 -104.48568 37013 ft 530 kts 91°
2026-04-25 22:23 31.91255 -104.39884 36963 ft 530 kts 92°
2026-04-25 22:23 31.91001 -104.31250 36945 ft 531 kts 92°
2026-04-25 22:24 31.90755 -104.22607 36935 ft 526 kts 92°
2026-04-25 22:24 31.90505 -104.14028 36924 ft 527 kts 92°
2026-04-25 22:25 31.90253 -104.05399 36907 ft 530 kts 92°
2026-04-25 22:25 31.89984 -103.96766 36887 ft 529 kts 92°
2026-04-25 22:26 31.89703 -103.88167 36886 ft 529 kts 93°
2026-04-25 22:26 31.89420 -103.79503 36898 ft 528 kts 92°
2026-04-25 22:27 31.89141 -103.70895 36909 ft 526 kts 91°
2026-04-25 22:27 31.88853 -103.62353 36907 ft 527 kts 92°
2026-04-25 22:28 31.88552 -103.53748 36886 ft 529 kts 91°
2026-04-25 22:28 31.88244 -103.45133 36914 ft 525 kts 92°
2026-04-25 22:29 31.87927 -103.36487 36893 ft 540 kts 92°
2026-04-25 22:29 31.87576 -103.27559 36901 ft 554 kts 93°
2026-04-25 22:30 31.86041 -103.14043 36889 ft 556 kts 102°
2026-04-25 22:30 31.84738 -103.06683 36899 ft 556 kts 103°
2026-04-25 22:31 31.82833 -102.96319 36882 ft 558 kts 103°
2026-04-25 22:31 31.81244 -102.87415 36890 ft 557 kts 103°
2026-04-25 22:32 31.79693 -102.78507 36879 ft 558 kts 103°
2026-04-25 22:32 31.78151 -102.69524 36916 ft 558 kts 102°
2026-04-25 22:33 31.76629 -102.60657 36899 ft 558 kts 102°
2026-04-25 22:33 31.75082 -102.51722 36828 ft 558 kts 102°
2026-04-25 22:34 31.73535 -102.42811 36856 ft 559 kts 102°
2026-04-25 22:34 31.71981 -102.33920 36831 ft 560 kts 102°
2026-04-25 22:35 31.70422 -102.25019 36816 ft 558 kts 103°
2026-04-25 22:35 31.68855 -102.16110 36860 ft 555 kts 102°
2026-04-25 22:36 31.67288 -102.07272 36854 ft 557 kts 102°
2026-04-25 22:36 31.65705 -101.98398 36850 ft 557 kts 102°
2026-04-25 22:37 31.64107 -101.89474 36862 ft 558 kts 103°
2026-04-25 22:37 31.62521 -101.80628 36868 ft 557 kts 102°
2026-04-25 22:38 31.60924 -101.71726 36860 ft 559 kts 102°
2026-04-25 22:38 31.59322 -101.62823 36869 ft 558 kts 102°
2026-04-25 22:39 31.57699 -101.53884 36847 ft 558 kts 102°
2026-04-25 22:39 31.56083 -101.45019 36857 ft 558 kts 102°
2026-04-25 22:40 31.54465 -101.36177 36857 ft 560 kts 102°
2026-04-25 22:40 31.52829 -101.27284 36844 ft 557 kts 103°
2026-04-25 22:41 31.51191 -101.18418 36831 ft 559 kts 102°
2026-04-25 22:41 31.49544 -101.09537 36861 ft 558 kts 103°
2026-04-25 22:42 31.47890 -101.00644 36831 ft 559 kts 102°
2026-04-25 22:42 31.46393 -100.92622 36861 ft 558 kts 103°
2026-04-25 22:43 31.44749 -100.83826 36863 ft 558 kts 102°
2026-04-25 22:43 31.43153 -100.75339 36786 ft 559 kts 102°
2026-04-25 22:44 31.41549 -100.66849 36760 ft 557 kts 103°
2026-04-25 22:44 31.39873 -100.58020 36758 ft 558 kts 102°
2026-04-25 22:45 31.38178 -100.49123 36759 ft 557 kts 102°
2026-04-25 22:45 31.36541 -100.40282 36758 ft 558 kts 100°
2026-04-25 22:46 31.35160 -100.31582 36771 ft 557 kts 99°
2026-04-25 22:46 31.33824 -100.22633 36768 ft 557 kts 99°
2026-04-25 22:47 31.32448 -100.13717 36811 ft 560 kts 101°
2026-04-25 22:47 31.30451 -100.04997 36832 ft 556 kts 110°
2026-04-25 22:48 31.27447 -99.96657 36822 ft 556 kts 117°
2026-04-25 22:48 31.24092 -99.88532 36839 ft 554 kts 118°
2026-04-25 22:49 31.20731 -99.80476 36824 ft 550 kts 118°
2026-04-25 22:49 31.19088 -99.76480 36785 ft 536 kts 118°
2026-04-25 22:49 31.17503 -99.72578 36412 ft 530 kts 117°
2026-04-25 22:50 31.15933 -99.68684 35831 ft 528 kts 116°
2026-04-25 22:50 31.14383 -99.64824 35246 ft 527 kts 116°
2026-04-25 22:50 31.12846 -99.60987 34669 ft 525 kts 116°
2026-04-25 22:50 31.11322 -99.57174 34074 ft 523 kts 117°
2026-04-25 22:51 31.09788 -99.53339 33461 ft 522 kts 116°
2026-04-25 22:51 31.08259 -99.49520 32851 ft 521 kts 116°
2026-04-25 22:51 31.06726 -99.45691 32214 ft 519 kts 116°
2026-04-25 22:51 31.05194 -99.41872 31596 ft 518 kts 116°
2026-04-25 22:52 31.03682 -99.38111 30949 ft 517 kts 116°
2026-04-25 22:52 31.02158 -99.34323 30311 ft 515 kts 117°
2026-04-25 22:52 31.00634 -99.30542 29697 ft 513 kts 116°
2026-04-25 22:52 30.99643 -99.28085 29289 ft 511 kts 117°
2026-04-25 22:53 30.97638 -99.23116 28474 ft 506 kts 117°
2026-04-25 22:53 30.96139 -99.19402 27864 ft 503 kts 117°
2026-04-25 22:53 30.94665 -99.15756 27242 ft 500 kts 117°
2026-04-25 22:53 30.93175 -99.12073 26630 ft 497 kts 116°
2026-04-25 22:54 30.91715 -99.08468 26039 ft 493 kts 116°
2026-04-25 22:54 30.90254 -99.04866 25418 ft 490 kts 116°
2026-04-25 22:54 30.88826 -99.01346 24839 ft 486 kts 117°
2026-04-25 22:54 30.87380 -98.97786 24237 ft 482 kts 117°
2026-04-25 22:55 30.85967 -98.94312 23632 ft 479 kts 116°
2026-04-25 22:55 30.84540 -98.90807 23029 ft 474 kts 117°
2026-04-25 22:55 30.83139 -98.87368 22457 ft 470 kts 116°
2026-04-25 22:55 30.81748 -98.83945 21873 ft 466 kts 116°
2026-04-25 22:56 30.80505 -98.80492 21278 ft 463 kts 111°
2026-04-25 22:56 30.79578 -98.76968 20717 ft 459 kts 104°
2026-04-25 22:56 30.78950 -98.73354 20138 ft 455 kts 99°
2026-04-25 22:56 30.78496 -98.69747 19587 ft 451 kts 97°
2026-04-25 22:57 30.78127 -98.66160 19039 ft 446 kts 96°
2026-04-25 22:57 30.77799 -98.62654 18717 ft 428 kts 96°
2026-04-25 22:57 30.77491 -98.59257 18453 ft 410 kts 96°
2026-04-25 22:57 30.77199 -98.56058 18056 ft 398 kts 96°
2026-04-25 22:58 30.76898 -98.52868 17543 ft 401 kts 96°
2026-04-25 22:58 30.76581 -98.49648 17101 ft 400 kts 97°
2026-04-25 22:58 30.76231 -98.46444 16561 ft 400 kts 99°
2026-04-25 22:58 30.75707 -98.43295 16107 ft 394 kts 105°
2026-04-25 22:59 30.74885 -98.40316 15687 ft 389 kts 112°
2026-04-25 22:59 30.73841 -98.37414 14985 ft 392 kts 116°
2026-04-25 22:59 30.72676 -98.34521 14335 ft 392 kts 117°
2026-04-25 22:59 30.71512 -98.31718 13744 ft 385 kts 118°
2026-04-25 23:00 30.70365 -98.28947 13163 ft 377 kts 118°
2026-04-25 23:00 30.69255 -98.26236 12597 ft 370 kts 117°
2026-04-25 23:00 30.68173 -98.23555 12049 ft 362 kts 117°
2026-04-25 23:00 30.67135 -98.20962 11508 ft 355 kts 117°
2026-04-25 23:01 30.66112 -98.18388 11169 ft 341 kts 116°
2026-04-25 23:01 30.65148 -98.15950 11034 ft 323 kts 116°
2026-04-25 23:01 30.64226 -98.13618 10757 ft 315 kts 116°
2026-04-25 23:01 30.63311 -98.11311 10302 ft 316 kts 117°
2026-04-25 23:02 30.62401 -98.09022 9893 ft 316 kts 117°
2026-04-25 23:02 30.61480 -98.06708 9491 ft 314 kts 116°
2026-04-25 23:02 30.60572 -98.04427 9086 ft 313 kts 117°
2026-04-25 23:02 30.59656 -98.02125 8672 ft 312 kts 116°
2026-04-25 23:03 30.58758 -97.99867 8281 ft 311 kts 117°
2026-04-25 23:03 30.57846 -97.97575 7863 ft 309 kts 117°
2026-04-25 23:03 30.56952 -97.95332 7456 ft 307 kts 116°
2026-04-25 23:03 30.55979 -97.93143 7059 ft 303 kts 124°
2026-04-25 23:04 30.54764 -97.91193 6670 ft 293 kts 131°
2026-04-25 23:04 30.53895 -97.90010 6411 ft 288 kts 133°
2026-04-25 23:04 30.52138 -97.87736 5912 ft 278 kts 134°
2026-04-25 23:04 30.50884 -97.86097 5543 ft 271 kts 133°
2026-04-25 23:05 30.49658 -97.84459 5177 ft 265 kts 133°
2026-04-25 23:05 30.48465 -97.82841 5037 ft 265 kts 133°
2026-04-25 23:05 30.47267 -97.81210 5033 ft 262 kts 132°
2026-04-25 23:05 30.46114 -97.79636 5037 ft 252 kts 132°
2026-04-25 23:06 30.44999 -97.78116 5020 ft 242 kts 132°
2026-04-25 23:06 30.43917 -97.76643 5015 ft 234 kts 132°
2026-04-25 23:06 30.42852 -97.75275 5008 ft 226 kts 139°
2026-04-25 23:06 30.41610 -97.74204 4850 ft 224 kts 150°
2026-04-25 23:07 30.40254 -97.73310 4451 ft 226 kts 153°
2026-04-25 23:07 30.38879 -97.72414 4107 ft 223 kts 152°
2026-04-25 23:07 30.37569 -97.71523 3821 ft 217 kts 150°
2026-04-25 23:07 30.36287 -97.70628 3550 ft 214 kts 150°
2026-04-25 23:08 30.35030 -97.69741 3441 ft 204 kts 149°
2026-04-25 23:08 30.33831 -97.68887 3151 ft 205 kts 151°
2026-04-25 23:08 30.32505 -97.68382 2815 ft 193 kts 174°
2026-04-25 23:08 30.31229 -97.68295 2511 ft 178 kts 176°
2026-04-25 23:09 30.30044 -97.68216 2262 ft 161 kts 176°
2026-04-25 23:09 30.28963 -97.68167 1993 ft 153 kts 178°
2026-04-25 23:09 30.27919 -97.68130 1767 ft 146 kts 178°
2026-04-25 23:09 30.26883 -97.68096 1595 ft 149 kts 178°
2026-04-25 23:10 30.25847 -97.68060 1388 ft 148 kts 178°
2026-04-25 23:10 30.24812 -97.68027 1199 ft 150 kts 178°
2026-04-25 23:10 30.23771 -97.67996 1016 ft 150 kts 179°
2026-04-25 23:10 30.22720 -97.67969 826 ft 149 kts 179°
2026-04-25 23:11 30.21682 -97.67944 626 ft 149 kts 178°
2026-04-25 23:11 30.20683 -97.67918 524 ft 121 kts 178°
2026-04-25 23:11 30.20177 -97.67905 511 ft 52 kts 176°
2026-04-25 23:11 30.19900 -97.67800 507 ft 30 kts 121°
2026-04-25 23:12 30.19886 -97.67638 506 ft 16 kts 89°
2026-04-25 23:12 30.19888 -97.67519 504 ft 14 kts 88°
2026-04-25 23:12 30.19895 -97.67376 504 ft 20 kts 75°
2026-04-25 23:12 30.20014 -97.67336 507 ft 18 kts
2026-04-25 23:13 30.20096 -97.67258 505 ft 16 kts 87°
2026-04-25 23:13 30.20097 -97.67142 505 ft 12 kts 90°
2026-04-25 23:13 30.20097 -97.67053 505 ft 9 kts 90°
2026-04-25 23:13 30.20094 -97.66992 505 ft 6 kts 90°
2026-04-25 23:14 30.20093 -97.66909 504 ft 14 kts 100°
2026-04-25 23:14 30.20067 -97.66778 502 ft 16 kts 96°
2026-04-25 23:14 30.20062 -97.66660 502 ft 13 kts 89°
2026-04-25 23:14 30.20073 -97.66584 502 ft 6 kts 40°
2026-04-25 23:15 30.20109 -97.66581 502 ft 3 kts 352°
2026-04-25 23:15 30.20126 -97.66585 502 ft 1 kts 348°
2026-04-25 23:15 30.20140 -97.66588 502 ft 1 kts 348°
2026-04-25 23:15 30.20145 -97.66589 502 ft 0 kts 347°